[[{"header":{"parameterUnit":"m.s-1","parameterCategory":1,"la1":30.2991,"la2":30.254,"lo1":-89.0895,"lo2":-89.0444,"dy":0.0017,"dx":0.0017,"nx":28,"ny":28,"refTime":"2025-11-23T03:00:00:Z","depth":0,"parameterNumber":2,"parameterNumberName":"U-component_of_WINDS"},"data":[0,0,0,0,0,0,0,0,0,0,0,0,0,0,0,0,0,0,0,0,0,0,0,0,0,0,0,0,0,0,0,0,0,0,0,0,0,0,0,0,0,0,0,0,0,0,0,0,0,0,0,0,0,0,0,0,0,0,0.9845,0.9845,0,0.9897,0.9898,0.9898,0.9908,0.9907,0.9907,0.9906,0.9962,0.9964,0.9966,0,0,0,0,0,0,0,0,0,0,0,0,0,0.9755,0.9757,0.9845,0.9845,0.9846,0.9897,0.9898,0.9898,0.9908,0.9907,0.9907,0.9906,0.9962,0.9964,0.9966,0,0,0,0,0,0,0,0,0,0,0,0,0,0.9799,0.9757,0.9844,0.9857,0.9858,0.9897,0.9898,0.9898,0.9908,0.9907,0.9906,0.9906,0.9961,0.9964,0.9966,0.9997,0,0,0.9975,0.9976,0,0,0,0,0,0,0,0,0.9797,0.9803,0.9854,0.9856,0.9858,0.9895,0.9886,0.9932,0.9908,0.9889,0.9906,0.9906,0.9941,0.9945,0.9956,1.0,1.0002,0.9975,0.9977,0.9978,0.9979,0,0,0,0,0,0,0,0.9794,0.98,0.9865,0.9855,0.9857,0.986,0.9866,0.9895,0.9918,0.9891,0.9891,0.9897,0.9941,0.9954,0.9958,1.0003,0.9975,0.9978,0.998,0.9981,1.0074,1.0075,0,0,0,0,0,0,0.9788,0.9798,0.9864,0.9867,0.9825,0.9862,0.9869,0.9884,0.9918,0.9922,0.9898,0.9898,0.9949,0.9954,0.996,0.9998,0.9978,0.9981,0.9983,1.0074,1.0075,1.0075,0,0,0,0,0,0,0.9786,0.9794,0.9862,0.9833,0.9841,0.9865,0.9882,0.9885,0.9897,0.9923,0.9927,0.9906,0.9949,0.9956,0.9988,1.0,0.9982,0.9985,1.0073,1.0074,1.0075,1.0074,0,0,0,0,0,0,0.9784,0.9793,0.9804,0.9833,0.9843,0.9888,0.9882,0.9887,0.9902,0.9902,0.9932,0.9936,0.9949,0.9983,0.999,1.0003,0.9987,1.0072,1.0073,1.0075,1.0073,1.0075,1.0077,0,0,0,0,0,0.978,0.9803,0.9805,0.9813,0.9857,0.9888,0.9894,0.9908,0.9903,0.9915,0.9931,0.9935,0.9997,0.9986,0.9995,1.0009,1.0071,1.0073,1.0074,1.0072,1.0075,1.0077,0,0,0,0,0,0,0.9776,0.9806,0.9809,0.9841,0.9862,0.989,0.9905,0.991,0.9933,0.9932,0.9949,0.9956,0.9986,1.0001,0.9988,1.004,1.0034,1.0037,1.003,1.0032,1.0034,1.003,0.9989,0,0,0,0,0,0.9778,0.98,0.9826,0.9852,0.9862,0.9882,0.9896,0.9904,0.9927,0.9936,0.9955,0.9977,1.0002,1.0018,1.0042,1.0075,1.0082,1.0089,1.0091,1.0092,1.0095,1.0114,1.0118,1.0081,1.0081,1.0081,0,0,0.9784,0.9804,0.9816,0.9851,0.9869,0.9892,0.9889,0.9914,0.9931,0.994,0.9971,0.9986,1.0012,1.0045,1.006,1.0058,1.0107,1.0095,1.0096,1.0098,1.0116,1.012,1.0123,1.0082,1.0082,1.0082,0,0,0.9806,0.9823,0.9846,0.9863,0.9889,0.9902,0.9908,0.9935,0.9945,0.9976,0.9983,1.0005,1.0047,1.0065,1.008,1.0109,1.0114,1.0117,1.0126,1.0145,1.0148,1.015,1.0161,1.0164,1.012,1.012,1.012,0,0.981,0.9844,0.9858,0.9882,0.9897,0.9906,0.993,0.9946,0.9979,0.9989,0.9986,1.0039,1.0057,1.0094,1.0101,1.0113,1.0121,1.0113,1.0146,1.0149,1.0151,1.0162,1.0165,1.012,1.012,1.012,1.012,0,0.9848,0.9872,0.9887,0.9918,0.9935,0.9959,0.9977,0.9993,1.0,1.0014,1.0046,1.0068,1.0097,1.0106,1.0114,1.0145,1.0143,1.0142,1.0136,1.0155,1.0165,1.0169,1.012,1.012,1.012,1.012,0,0,0.9868,0.9906,0.9911,0.9925,0.9955,0.9974,0.9998,1.0026,1.0039,1.0062,1.0083,1.0118,1.0119,1.0135,1.0145,1.0161,1.0183,1.0159,1.016,1.0163,1.0219,1.0219,1.0223,1.0187,1.0187,1.0188,1.0217,0,0.9893,0.9937,0.995,0.9986,1.0009,1.0018,1.0039,1.006,1.0073,1.0095,1.0111,1.0135,1.0133,1.0144,1.016,1.0177,1.0195,1.0175,1.0207,1.0208,1.02,1.0228,1.0228,1.0254,1.0221,1.0221,1.0222,0,0.9928,0.9951,0.999,1.0016,1.0026,1.0045,1.0071,1.0092,1.0116,1.0125,1.0143,1.0152,1.0179,1.0172,1.0209,1.0196,1.021,1.022,1.0221,1.0225,1.0216,1.0232,1.0262,1.0266,1.0228,1.0228,1.0227,0,0.9939,0.9979,1.0007,1.0019,1.0051,1.0064,1.0078,1.0101,1.0117,1.0141,1.0151,1.0178,1.0192,1.0213,1.0229,1.0222,1.0265,1.0259,1.0274,1.0273,1.0282,1.0281,1.0315,1.0291,1.0291,1.0291,1.0291,0,0.9966,0.9989,1.0012,1.003,1.0057,1.0072,1.0098,1.0113,1.0133,1.0154,1.0164,1.0184,1.0203,1.0226,1.0239,1.0268,1.0274,1.0283,1.0286,1.0282,1.0281,1.0291,1.0289,1.0292,1.0292,1.0292,1.0292,0,0.9982,0.9998,1.003,1.0057,1.0065,1.0083,1.0107,1.0125,1.0139,1.0165,1.0172,1.0195,1.0222,1.024,1.0274,1.0283,1.0315,1.0318,1.0306,1.0308,1.0321,1.032,1.0362,1.0369,1.0341,1.0342,1.0342,0,0.9998,1.0016,1.0045,1.0059,1.0073,1.0097,1.0113,1.0129,1.0145,1.0174,1.0188,1.0216,1.0238,1.0281,1.0301,1.0328,1.0331,1.0344,1.0335,1.0331,1.0331,1.033,1.0332,1.0346,1.0346,1.0346,1.0346,0,1.0024,1.0031,1.0054,1.0079,1.0098,1.0119,1.014,1.0151,1.0171,1.0189,1.0216,1.0234,1.0269,1.0297,1.0325,1.0341,1.0347,1.0349,1.0354,1.035,1.0342,1.0346,1.031,1.0348,1.0348,1.0348,1.0348,1.0347,1.004,1.0057,1.008,1.0105,1.0122,1.0142,1.016,1.0176,1.0199,1.0228,1.0236,1.0265,1.0289,1.0328,1.0344,1.0367,1.0366,1.0373,1.0374,1.0376,1.0376,1.0339,1.0372,1.0372,1.0372,1.0372,1.0372,0,1.0067,1.0082,1.0105,1.0134,1.0154,1.0157,1.0181,1.0197,1.0222,1.0244,1.0266,1.0297,1.0324,1.0346,1.0374,1.0388,1.0392,1.0395,1.0394,1.0397,1.0375,1.0368,1.0391,1.0391,1.0391,1.0391,1.0391,1.0391,1.0083,1.0111,1.0121,1.0159,1.0174,1.0202,1.0215,1.0233,1.0251,1.0285,1.0307,1.0321,1.0343,1.0372,1.0397,1.0403,1.0413,1.0415,1.0422,1.0401,1.0399,1.0397,1.039,1.0417,1.0417,1.0442,1.0442,1.0442]},{"header":{"parameterUnit":"m.s-1","parameterCategory":1,"la1":30.2991,"la2":30.254,"lo1":-89.0895,"lo2":-89.0444,"dy":0.0017,"dx":0.0017,"nx":28,"ny":28,"refTime":"2025-11-23T03:00:00:Z","depth":0,"parameterNumber":3,"parameterNumberName":"V-component_of_WINDS"},"data":[0,0,0,0,0,0,0,0,0,0,0,0,0,0,0,0,0,0,0,0,0,0,0,0,0,0,0,0,0,0,0,0,0,0,0,0,0,0,0,0,0,0,0,0,0,0,0,0,0,0,0,0,0,0,0,0,0,0,1.3888,1.3888,0,1.3925,1.3926,1.3926,1.3917,1.3916,1.3916,1.3915,1.3951,1.3952,1.3954,0,0,0,0,0,0,0,0,0,0,0,0,0,1.3806,1.3808,1.3888,1.3888,1.3889,1.3925,1.3926,1.3926,1.3917,1.3916,1.3916,1.3915,1.395,1.3952,1.3954,0,0,0,0,0,0,0,0,0,0,0,0,0,1.3842,1.3808,1.3888,1.3889,1.3889,1.3925,1.3926,1.3926,1.3917,1.3916,1.3915,1.3914,1.395,1.3952,1.3954,1.3991,0,0,1.3962,1.3963,0,0,0,0,0,0,0,0,1.384,1.3845,1.3888,1.3889,1.3889,1.3915,1.391,1.3948,1.3918,1.3907,1.3915,1.3914,1.394,1.3943,1.3952,1.3992,1.3994,1.3962,1.3963,1.3964,1.3965,0,0,0,0,0,0,0,1.3838,1.3844,1.3902,1.3889,1.389,1.3886,1.389,1.3917,1.3929,1.3908,1.3907,1.3912,1.394,1.395,1.3953,1.3994,1.3962,1.3964,1.3966,1.3966,1.4065,1.4066,0,0,0,0,0,0,1.3835,1.3842,1.3901,1.3904,1.3862,1.3889,1.3893,1.3908,1.3928,1.393,1.3913,1.3911,1.3946,1.395,1.3954,1.3998,1.3964,1.3967,1.3968,1.4064,1.4066,1.4067,0,0,0,0,0,0,1.3833,1.3841,1.39,1.3872,1.388,1.3891,1.3908,1.3909,1.3919,1.3932,1.3934,1.3921,1.3946,1.3951,1.3982,1.3999,1.3968,1.397,1.4063,1.4065,1.4066,1.4085,0,0,0,0,0,0,1.3831,1.384,1.3855,1.3873,1.3881,1.3928,1.3909,1.3911,1.3924,1.3922,1.394,1.3942,1.3945,1.3978,1.3984,1.4002,1.3972,1.4061,1.4064,1.4066,1.4083,1.4088,1.4091,0,0,0,0,0,1.3828,1.3858,1.3855,1.3863,1.39,1.3929,1.3933,1.3937,1.3925,1.394,1.3948,1.3942,1.3996,1.3981,1.3988,1.4007,1.406,1.4063,1.4065,1.4081,1.4087,1.4091,0,0,0,0,0,0,1.384,1.386,1.3858,1.3895,1.391,1.3927,1.3945,1.3942,1.3961,1.3958,1.3961,1.3965,1.3996,1.4004,1.3988,1.4042,1.4026,1.403,1.4036,1.4041,1.4045,1.4043,1.3974,0,0,0,0,0,1.3848,1.387,1.3886,1.3917,1.3925,1.3934,1.3946,1.3948,1.3963,1.397,1.398,1.3995,1.4015,1.4029,1.4048,1.4084,1.4088,1.41,1.4104,1.4107,1.4111,1.413,1.4136,1.4075,1.4075,1.4075,0,0,1.3862,1.3876,1.389,1.392,1.3932,1.3954,1.3939,1.3964,1.398,1.3973,1.4003,1.4011,1.4028,1.4062,1.4077,1.4069,1.4128,1.4111,1.4113,1.4115,1.4134,1.4139,1.4144,1.4077,1.4077,1.4077,0,0,1.3901,1.3914,1.3941,1.3953,1.3972,1.3978,1.3984,1.4002,1.4007,1.4038,1.4033,1.4052,1.4087,1.4099,1.411,1.4152,1.4147,1.4158,1.4179,1.4198,1.4203,1.4207,1.4223,1.4228,1.4162,1.4162,1.4162,0,1.3917,1.3951,1.3955,1.398,1.3993,1.3988,1.4015,1.4027,1.4051,1.4059,1.405,1.4094,1.4105,1.4142,1.4152,1.4161,1.4168,1.4156,1.4202,1.4206,1.421,1.4225,1.4231,1.4163,1.4163,1.4163,1.4162,0,1.397,1.3994,1.4013,1.4037,1.4052,1.4078,1.4085,1.4099,1.4099,1.4105,1.4136,1.4149,1.4171,1.4179,1.4179,1.4215,1.421,1.4202,1.4186,1.4217,1.4231,1.4237,1.4165,1.4164,1.4164,1.4164,0,0,1.4018,1.4043,1.4051,1.4061,1.4082,1.41,1.4125,1.4147,1.416,1.4176,1.4197,1.4226,1.4219,1.4231,1.4231,1.4248,1.4281,1.4238,1.4238,1.4245,1.4322,1.4329,1.4335,1.4277,1.4279,1.4279,1.4321,0,1.4058,1.4104,1.4108,1.4149,1.417,1.4166,1.4188,1.4202,1.4208,1.4227,1.4233,1.4254,1.4243,1.425,1.4266,1.4274,1.4296,1.427,1.4297,1.4297,1.4293,1.4342,1.4349,1.4388,1.4326,1.4327,1.4328,0,1.4112,1.4131,1.4174,1.4191,1.4201,1.422,1.4241,1.4259,1.4275,1.4278,1.4291,1.429,1.4315,1.4297,1.4331,1.4314,1.4324,1.433,1.4331,1.4334,1.4315,1.4347,1.44,1.4406,1.4336,1.4335,1.4335,0,1.4143,1.4179,1.421,1.4219,1.424,1.4254,1.4263,1.4277,1.429,1.4308,1.4316,1.4336,1.4347,1.4361,1.4365,1.4352,1.4399,1.4382,1.4402,1.4402,1.4413,1.4412,1.4469,1.4419,1.4419,1.4418,1.4418,0,1.4188,1.4215,1.4224,1.4243,1.4273,1.4276,1.4305,1.4312,1.4325,1.4345,1.4341,1.436,1.4363,1.4382,1.4384,1.4412,1.4417,1.442,1.442,1.4421,1.442,1.4428,1.4426,1.442,1.442,1.4419,1.4419,0,1.4228,1.4236,1.4269,1.4286,1.429,1.4311,1.4325,1.4343,1.4348,1.4373,1.4379,1.4388,1.441,1.4414,1.444,1.4442,1.4475,1.4472,1.447,1.447,1.449,1.4488,1.4554,1.4563,1.4507,1.4507,1.4508,0,1.4257,1.4278,1.4297,1.4311,1.4321,1.4342,1.4355,1.4359,1.4373,1.4392,1.4407,1.4429,1.4446,1.4481,1.4489,1.4508,1.4507,1.4528,1.451,1.4509,1.4507,1.4507,1.4509,1.4532,1.4533,1.4533,1.4534,0,1.4308,1.431,1.4331,1.4352,1.4368,1.4385,1.4401,1.4411,1.4417,1.4432,1.4455,1.4469,1.4495,1.4516,1.4536,1.4544,1.454,1.4539,1.4545,1.4546,1.4544,1.4546,1.448,1.4538,1.4538,1.4537,1.4537,1.4537,1.4344,1.4362,1.4378,1.4401,1.4413,1.4428,1.4445,1.4453,1.4473,1.4495,1.4495,1.452,1.4534,1.456,1.4569,1.4588,1.4581,1.459,1.4592,1.4594,1.4596,1.4541,1.4591,1.4591,1.4591,1.4591,1.4591,0,1.4394,1.4405,1.4425,1.4448,1.4465,1.446,1.4477,1.4492,1.4514,1.4528,1.4546,1.4571,1.4592,1.4601,1.4621,1.4635,1.4633,1.464,1.4639,1.4641,1.4601,1.4594,1.4641,1.4641,1.4641,1.4641,1.4641,1.4641,1.4423,1.4454,1.4458,1.4494,1.4504,1.4529,1.4539,1.4552,1.4564,1.4593,1.461,1.4617,1.4629,1.4649,1.4668,1.467,1.4678,1.4685,1.4687,1.4649,1.4644,1.4639,1.4633,1.4687,1.4687,1.4725,1.4726,1.4726]}]]